TimeMDT,TemperatureF,Dew PointF,Humidity,Sea Level PressureIn,VisibilityMPH,Wind Direction,Wind SpeedMPH,Gust SpeedMPH,PrecipitationIn,Events,Conditions,WindDirDegrees,DateUTC
12:00 AM,25.9,19.8,78,30.42,-9999.0,WNW,2.3,-,N/A,,Unknown,300,2012-10-06 06:00:00
1:00 AM,29.7,21.9,73,30.40,-9999.0,SW,3.5,-,N/A,,Unknown,220,2012-10-06 07:00:00
2:00 AM,31.3,20.8,65,30.39,-9999.0,WSW,1.2,-,N/A,,Unknown,240,2012-10-06 08:00:00
3:00 AM,31.6,20.1,62,30.38,-9999.0,SW,3.5,-,N/A,,Unknown,230,2012-10-06 09:00:00
4:00 AM,31.5,20.5,64,30.38,-9999.0,SW,3.5,-,N/A,,Unknown,230,2012-10-06 10:00:00
5:00 AM,31.6,20.7,64,30.39,-9999.0,SSW,3.5,-,N/A,,Unknown,210,2012-10-06 11:00:00
6:00 AM,32.9,21.2,62,30.40,-9999.0,SSW,3.5,-,N/A,,Unknown,200,2012-10-06 12:00:00
7:00 AM,32.9,21.4,63,30.43,-9999.0,SSW,3.5,-,N/A,,Unknown,200,2012-10-06 13:00:00
8:00 AM,33.3,21.6,62,30.44,-9999.0,SSW,3.5,-,N/A,,Unknown,200,2012-10-06 14:00:00
9:00 AM,34.5,21.6,59,30.45,-9999.0,SW,3.5,-,N/A,,Unknown,220,2012-10-06 15:00:00
10:00 AM,37.6,21.2,52,30.44,-9999.0,SW,4.6,-,N/A,,Unknown,220,2012-10-06 16:00:00
11:00 AM,40.6,20.5,45,30.42,-9999.0,SW,3.5,-,N/A,,Unknown,230,2012-10-06 17:00:00
12:00 PM,43.9,21.4,41,30.38,-9999.0,WSW,3.5,-,N/A,,Unknown,240,2012-10-06 18:00:00
1:00 PM,48.4,20.8,34,30.35,-9999.0,SW,5.8,-,N/A,,Unknown,220,2012-10-06 19:00:00
2:00 PM,49.8,22.1,34,30.32,-9999.0,SSW,3.5,-,N/A,,Unknown,210,2012-10-06 20:00:00
3:00 PM,55.4,23.5,29,30.27,-9999.0,SSE,2.3,-,N/A,,Unknown,160,2012-10-06 21:00:00
4:00 PM,57.6,23.9,27,30.25,-9999.0,SE,3.5,-,N/A,,Unknown,140,2012-10-06 22:00:00
5:00 PM,58.3,25.5,28,30.22,-9999.0,South,3.5,-,N/A,,Unknown,170,2012-10-06 23:00:00
6:00 PM,52.9,25.9,35,30.22,-9999.0,NNW,3.5,-,N/A,,Unknown,330,2012-10-07 00:00:00
7:00 PM,44.1,28.8,55,30.25,-9999.0,NE,1.2,-,N/A,,Unknown,40,2012-10-07 01:00:00
8:00 PM,36.7,27.3,69,30.27,-9999.0,East,1.2,-,N/A,,Unknown,90,2012-10-07 02:00:00
9:00 PM,31.5,26.6,82,30.27,-9999.0,North,1.2,-,N/A,,Unknown,360,2012-10-07 03:00:00
10:00 PM,31.1,26.6,83,30.27,-9999.0,South,1.2,-,N/A,,Unknown,180,2012-10-07 04:00:00
11:00 PM,30.9,26.2,83,30.25,-9999.0,South,1.2,-,N/A,,Unknown,170,2012-10-07 05:00:00